FW8074 Weather Reports


Display with metric or nautical units.
time (UTC)temp
F
wind
direction
speed
MPH
gust
MPH
rain 1hr
in
rain 24hr
in
rain mn
in
humidity
%
barometer
mb
20260902230103 89 0 0.0 0.0 0.00 0.00 0.00 73 1013.1
20260902224604 91 0 0.0 0.0 0.00 0.00 0.00 70 1012.9
20260902223102 92 0 0.0 0.0 0.00 0.00 0.00 68 1012.8
20260902221623 93 0 0.0 0.0 0.00 0.00 0.00 65 1012.9
20260902220108 94 0 0.0 0.0 0.00 0.00 0.00 66 1012.9
20260902214604 94 0 0.0 0.0 0.00 0.00 0.00 59 1013.0
20260902213102 95 0 0.0 0.0 0.00 0.00 0.00 59 1013.0
20260902211607 95 0 0.0 0.0 0.00 0.00 0.00 59 1013.0
20260902210106 95 0 0.0 0.0 0.00 0.00 0.00 59 1013.2
20260902204617 95 0 0.0 0.0 0.00 0.00 0.00 54 1013.2
20260902203101 95 0 0.0 0.0 0.00 0.00 0.00 56 1013.3
20260902201605 96 0 0.0 0.0 0.00 0.00 0.00 55 1013.3
20260902200104 96 0 0.0 0.0 0.00 0.00 0.00 55 1013.4
20260902194625 96 0 0.0 0.0 0.00 0.00 0.00 55 1013.7
20260902193102 96 0 0.0 0.0 0.00 0.00 0.00 57 1013.8
20260902191609 96 0 0.0 0.0 0.00 0.00 0.00 56 1014.0
20260902190106 96 0 0.0 0.0 0.00 0.00 0.00 57 1014.0
20260902184605 96 0 0.0 0.0 0.00 0.00 0.00 56 1014.2
20260902183137 95 0 0.0 0.0 0.00 0.00 0.00 57 1014.4
20260902181610 96 0 0.0 0.0 0.00 0.00 0.00 57 1014.4
20260902180108 95 0 0.0 0.0 0.00 0.00 0.00 57 1014.6
20260902174603 95 0 0.0 0.0 0.00 0.00 0.00 58 1014.9
20260902173129 95 0 0.0 0.0 0.00 0.00 0.00 61 1014.8
20260902171628 94 0 0.0 0.0 0.00 0.00 0.00 60 1015.0
20260902170116 94 0 0.0 0.0 0.00 0.00 0.00 61 1015.1
20260902164635 94 0 0.0 0.0 0.00 0.00 0.00 64 1015.0
20260902163109 94 0 0.0 0.0 0.00 0.00 0.00 64 1015.1
20260902161608 93 0 0.0 0.0 0.00 0.00 0.00 66 1015.1
20260902160112 93 0 0.0 0.0 0.00 0.00 0.00 64 1015.2
20260902154602 93 0 0.0 0.0 0.00 0.00 0.00 67 1015.2
20260902153104 92 0 0.0 0.0 0.00 0.00 0.00 68 1015.4
20260902151607 91 0 0.0 0.0 0.00 0.00 0.00 68 1015.6
20260902144609 90 0 0.0 0.0 0.00 0.00 0.00 72 1015.4
20260902143106 90 0 0.0 0.0 0.00 0.00 0.00 72 1015.2
20260902141605 88 0 0.0 0.0 0.00 0.00 0.00 76 1015.1
20260902134605 86 0 0.0 0.0 0.00 0.00 0.00 80 1015.2
20260902133104 84 0 0.0 0.0 0.00 0.00 0.00 86 1015.0
20260902131614 82 0 0.0 0.0 0.00 0.00 0.00 89 1015.3
20260902130113 79 0 0.0 0.0 0.00 0.00 0.00 94 1015.5
20260902124559 77 0 0.0 0.0 0.00 0.00 0.00 98 1015.5
20260902123101 75 0 0.0 0.0 0.00 0.00 0.00 98 1015.5
20260902121602 74 0 0.0 0.0 0.00 0.00 0.00 99 1015.6
20260902114619 73 0 0.0 0.0 0.00 0.00 0.00 99 1015.6
20260902113104 73 0 0.0 0.0 0.00 0.00 0.00 99 1015.6
20260902111604 73 0 0.0 0.0 0.00 0.00 0.00 98 1015.3
20260902110107 73 0 0.0 0.0 0.00 0.00 0.00 98 1015.4
20260902104602 73 0 0.0 0.0 0.00 0.00 0.00 98 1015.1
20260902103110 73 0 0.0 0.0 0.00 0.00 0.00 98 1014.9
20260902101600 73 0 0.0 0.0 0.00 0.00 0.00 98 1014.8
20260902100101 74 0 0.0 0.0 0.00 0.00 0.00 98 1014.8
20260902094601 74 0 0.0 0.0 0.00 0.00 0.00 97 1015.0
20260902093103 74 0 0.0 0.0 0.00 0.00 0.00 98 1014.9
20260902091604 74 0 0.0 0.0 0.00 0.00 0.00 97 1014.7
20260902090105 74 0 0.0 0.0 0.00 0.00 0.00 97 1014.4
20260902084607 74 0 0.0 0.0 0.00 0.00 0.00 97 1014.6
20260902083105 74 0 0.0 0.0 0.00 0.00 0.00 96 1014.6
20260902081608 75 0 0.0 0.0 0.00 0.00 0.00 96 1014.4
20260902080105 75 0 0.0 0.0 0.00 0.00 0.00 96 1014.5
20260902074604 75 0 0.0 0.0 0.00 0.00 0.00 95 1014.6
20260902073104 76 0 0.0 0.0 0.00 0.00 0.00 95 1014.8
20260902071605 76 0 0.0 0.0 0.00 0.00 0.00 95 1014.8
20260902070114 76 0 0.0 0.0 0.00 0.00 0.00 94 1014.9
20260902064605 76 0 0.0 0.0 0.00 0.00 0.00 94 1015.0
20260902063108 77 0 0.0 0.0 0.00 0.00 0.00 93 1015.0
20260902061603 77 0 0.0 0.0 0.00 0.00 0.00 93 1014.9
20260902060128 77 0 0.0 0.0 0.00 0.00 0.00 93 1015.0
20260902054603 77 0 0.0 0.0 0.00 0.00 0.00 93 1014.9
20260902053103 77 0 0.0 0.0 0.00 0.00 0.00 93 1014.7
20260902051610 77 0 0.0 0.0 0.00 0.00 0.00 93 1014.6
20260902050109 78 0 0.0 0.0 0.00 0.00 0.00 93 1014.7
20260902044604 78 0 0.0 0.0 0.00 0.00 0.00 92 1014.6
20260902043104 78 0 0.0 0.0 0.00 0.00 0.00 92 1014.7
20260902041611 78 0 0.0 0.0 0.00 0.00 0.00 92 1014.4
20260902040107 78 0 0.0 0.0 0.00 0.00 0.00 92 1014.4
20260902034603 78 0 0.0 0.0 0.00 0.00 0.00 92 1014.3
20260902033107 78 0 0.0 0.0 0.00 0.00 0.00 92 1014.3
20260902031610 78 0 0.0 0.0 0.00 0.00 0.00 92 1014.4
20260902030104 78 0 0.0 0.0 0.00 0.00 0.00 91 1014.3
20260902024607 79 0 0.0 0.0 0.00 0.00 0.00 90 1014.2
20260902023059 79 0 0.0 0.0 0.00 0.00 0.00 91 1014.2
20260902021604 79 0 0.0 0.0 0.00 0.00 0.00 90 1014.2
20260902014603 80 0 0.0 0.0 0.00 0.00 0.00 90 1014.0
20260902013102 81 0 0.0 0.0 0.00 0.00 0.00 90 1013.9
20260902011611 81 0 0.0 0.0 0.00 0.00 0.00 90 1014.0
20260902010105 82 0 0.0 0.0 0.00 0.00 0.00 88 1013.8
20260902004603 82 0 0.0 0.0 0.00 0.00 0.00 87 1013.6
20260902003142 83 0 0.0 0.0 0.00 0.00 0.00 86 1013.5
20260902001602 83 0 0.0 0.0 0.00 0.00 0.00 80 1013.5
20260902000120 84 0 0.0 0.0 0.00 0.00 0.00 78 1013.4
20260901234605 85 0 0.0 0.0 0.00 0.00 0.00 78 1013.5
20260901233106 86 0 0.0 0.0 0.00 0.00 0.00 77 1013.5
20260901231606 88 0 0.0 0.0 0.00 0.00 0.00 75 1013.7